QPF
0.00 0.00 0.00 0.00 0.00 0.00 0.00 0.00 0.00 0.00 0.00 0.00 0.00 0.00 0.00 0.00 0.00 0.00 0.00 0.01 0.08 0.12 0.13 0.01 0.00 0.00 0.00 0.00 0.00 0.00 0.00 0.00 0.00 0.00 0.04 0.01 0.00 0.00 0.01 0.02 0.01 0.00 0.00 0.00 0.00
0.00 0.00 0.00 0.00 0.00 0.00 0.00 0.00 0.00 0.00 0.00 0.00 0.00 0.00 0.00 0.00 0.00 0.00 0.00 0.00 0.02 0.08 0.04 0.00 0.00 0.00 0.00 0.00 0.00 0.00 0.00 0.00 0.00 0.00 0.02 0.02 0.00 0.00 0.00 0.01 0.01 0.00 0.00 0.00 0.00
0.00 0.00 0.00 0.00 0.00 0.00 0.00 0.00 0.00 0.00 0.00 0.00 0.00 0.00 0.00 0.00 0.00 0.00 0.00 0.00 0.07 0.06 0.02 0.00 0.01 0.00 0.00 0.00 0.00 0.00 0.00 0.00 0.00 0.00 0.01 0.02 0.00 0.00 0.00 0.00 0.00 0.00 0.00 0.00 0.00
0.00 0.00 0.00 0.00 0.00 0.00 0.00 0.00 0.00 0.00 0.00 0.00 0.00 0.00 0.00 0.00 0.00 0.00 0.00 0.00 0.01 0.00 0.00 0.04 0.03 0.00 0.00 0.00 0.00 0.00 0.00 0.00 0.00 0.00 0.00 0.01 0.00 0.00 0.00 0.00 0.00 0.00 0.00 0.00 0.00
0.00 0.00 0.00 0.00 0.00 0.00 0.00 0.00 0.00 0.00 0.00 0.00 0.00 0.00 0.00 0.00 0.00 0.00 0.00 0.00 0.00 0.00 0.01 0.02 0.00 0.00 0.00 0.00 0.00 0.00 0.00 0.00 0.00 0.00 0.00 0.00 0.00 0.00 0.00 0.03 0.02 0.01 0.03 0.02 0.00
0.00 0.00 0.00 0.00 0.00 0.00 0.00 0.00 0.00 0.00 0.00 0.00 0.00 0.00 0.00 0.00 0.00 0.00 0.00 0.00 0.00 0.00 0.01 0.00 0.00 0.00 0.00 0.00 0.00 0.00 0.00 0.00 0.00 0.00 0.00 0.00 0.00 0.00 0.00 0.02 0.04 0.04 0.07 0.05 0.03
0.00 0.00 0.00 0.00 0.00 0.00 0.00 0.00 0.00 0.00 0.00 0.00 0.00 0.00 0.00 0.00 0.00 0.00 0.00 0.00 0.00 0.00 0.00 0.00 0.00 0.00 0.00 0.00 0.00 0.00 0.00 0.00 0.00 0.00 0.00 0.00 0.00 0.00 0.00 0.00 0.03 0.05 0.08 0.09 0.05
0.00 0.00 0.00 0.00 0.00 0.00 0.00 0.00 0.00 0.00 0.00 0.00 0.00 0.00 0.00 0.00 0.00 0.00 0.00 0.00 0.00 0.00 0.00 0.00 0.00 0.00 0.00 0.00 0.00 0.00 0.00 0.00 0.00 0.00 0.00 0.00 0.00 0.00 0.00 0.00 0.01 0.02 0.05 0.06 0.01
0.00 0.00 0.00 0.00 0.00 0.00 0.00 0.00 0.00 0.00 0.00 0.00 0.00 0.00 0.00 0.00 0.00 0.00 0.00 0.00 0.00 0.00 0.00 0.00 0.00 0.00 0.00 0.00 0.00 0.00 0.00 0.00 0.00 0.00 0.00 0.00 0.00 0.00 0.01 0.02 0.01 0.01 0.01 0.01 0.00
0.00 0.00 0.00 0.00 0.00 0.00 0.00 0.00 0.00 0.00 0.00 0.00 0.00 0.00 0.00 0.00 0.00 0.00 0.00 0.00 0.00 0.00 0.00 0.00 0.00 0.00 0.00 0.00 0.00 0.00 0.00 0.00 0.00 0.00 0.00 0.00 0.00 0.00 0.00 0.01 0.04 0.02 0.03 0.03 0.00
0.00 0.00 0.00 0.00 0.00 0.00 0.00 0.00 0.00 0.00 0.00 0.00 0.00 0.00 0.00 0.00 0.00 0.00 0.00 0.00 0.00 0.00 0.00 0.00 0.00 0.00 0.00 0.00 0.00 0.00 0.00 0.00 0.00 0.00 0.00 0.00 0.00 0.00 0.01 0.01 0.02 0.01 0.02 0.03 0.04
0.00 0.00 0.00 0.00 0.00 0.00 0.00 0.00 0.00 0.00 0.00 0.00 0.00 0.00 0.00 0.00 0.00 0.00 0.00 0.00 0.00 0.00 0.00 0.00 0.00 0.00 0.00 0.00 0.00 0.00 0.00 0.00 0.00 0.00 0.00 0.00 0.00 0.00 0.00 0.00 0.00 0.00 0.00 0.01 0.03
0.00 0.00 0.00 0.00 0.00 0.00 0.00 0.00 0.00 0.00 0.00 0.00 0.00 0.00 0.00 0.00 0.00 0.00 0.00 0.00 0.00 0.00 0.00 0.00 0.00 0.00 0.00 0.00 0.00 0.00 0.00 0.00 0.00 0.00 0.00 0.00 0.00 0.00 0.00 0.00 0.00 0.00 0.00 0.00 0.00
0.00 0.00 0.00 0.00 0.00 0.00 0.00 0.00 0.00 0.00 0.00 0.00 0.00 0.00 0.00 0.00 0.00 0.00 0.00 0.00 0.00 0.00 0.00 0.00 0.00 0.00 0.00 0.00 0.00 0.00 0.00 0.00 0.00 0.00 0.00 0.00 0.00 0.00 0.00 0.00 0.00 0.00 0.00 0.00 0.00
0.00 0.00 0.00 0.00 0.00 0.00 0.00 0.00 0.00 0.00 0.00 0.00 0.00 0.00 0.00 0.00 0.00 0.00 0.00 0.00 0.00 0.00 0.00 0.00 0.00 0.00 0.00 0.00 0.00 0.00 0.00 0.00 0.00 0.00 0.00 0.00 0.00 0.00 0.00 0.00 0.00 0.00 0.00 0.00 0.00
0.00 0.00 0.00 0.00 0.00 0.00 0.00 0.00 0.00 0.00 0.00 0.00 0.00 0.00 0.00 0.00 0.00 0.00 0.00 0.00 0.00 0.00 0.00 0.00 0.00 0.00 0.00 0.00 0.00 0.00 0.00 0.00 0.00 0.00 0.00 0.00 0.00 0.00 0.00 0.00 0.00 0.00 0.00 0.00 0.00
0.00 0.00 0.00 0.00 0.00 0.00 0.00 0.00 0.00 0.00 0.00 0.00 0.00 0.00 0.00 0.00 0.00 0.00 0.00 0.00 0.00 0.00 0.00 0.00 0.00 0.00 0.00 0.00 0.00 0.00 0.00 0.00 0.00 0.00 0.00 0.00 0.00 0.00 0.00 0.00 0.00 0.00 0.00 0.00 0.00
0.00 0.00 0.00 0.00 0.00 0.00 0.00 0.00 0.00 0.00 0.00 0.00 0.00 0.00 0.00 0.00 0.00 0.00 0.00 0.00 0.00 0.00 0.00 0.00 0.00 0.00 0.00 0.00 0.00 0.00 0.00 0.00 0.00 0.00 0.00 0.00 0.00 0.00 0.00 0.00 0.00 0.00 0.00 0.00 0.00
0.00 0.00 0.00 0.00 0.00 0.00 0.00 0.00 0.00 0.00 0.00 0.00 0.00 0.00 0.00 0.00 0.00 0.00 0.00 0.00 0.00 0.00 0.00 0.00 0.00 0.00 0.00 0.00 0.00 0.00 0.00 0.00 0.00 0.00 0.00 0.00 0.00 0.00 0.00 0.00 0.00 0.00 0.00 0.00 0.00
0.00 0.00 0.00 0.00 0.00 0.00 0.00 0.00 0.00 0.00 0.00 0.00 0.00 0.00 0.00 0.00 0.00 0.00 0.00 0.00 0.00 0.00 0.00 0.00 0.00 0.00 0.00 0.00 0.00 0.00 0.00 0.00 0.00 0.00 0.00 0.00 0.00 0.00 0.00 0.00 0.00 0.00 0.00 0.00 0.00
0.00 0.00 0.00 0.00 0.00 0.00 0.00 0.00 0.00 0.00 0.00 0.00 0.00 0.00 0.00 0.00 0.00 0.00 0.00 0.00 0.00 0.00 0.00 0.00 0.00 0.00 0.00 0.00 0.00 0.00 0.00 0.00 0.00 0.00 0.00 0.00 0.00 0.00 0.00 0.00 0.00 0.00 0.00 0.00 0.00
0.00 0.00 0.00 0.00 0.00 0.00 0.00 0.00 0.00 0.00 0.00 0.00 0.00 0.00 0.00 0.00 0.00 0.00 0.00 0.00 0.00 0.00 0.00 0.00 0.00 0.00 0.00 0.00 0.00 0.00 0.00 0.00 0.00 0.00 0.00 0.00 0.00 0.00 0.00 0.00 0.00 0.00 0.00 0.00 0.00
0.00 0.00 0.00 0.00 0.00 0.00 0.00 0.00 0.00 0.00 0.00 0.00 0.00 0.00 0.00 0.00 0.00 0.00 0.00 0.00 0.00 0.00 0.00 0.00 0.00 0.00 0.00 0.00 0.00 0.00 0.00 0.00 0.00 0.00 0.00 0.00 0.00 0.00 0.00 0.00 0.00 0.00 0.00 0.00 0.00
0.00 0.00 0.00 0.00 0.00 0.00 0.00 0.00 0.00 0.00 0.00 0.00 0.00 0.00 0.00 0.00 0.00 0.00 0.00 0.00 0.00 0.00 0.00 0.00 0.00 0.00 0.00 0.00 0.00 0.00 0.00 0.00 0.00 0.00 0.00 0.00 0.00 0.00 0.00 0.00 0.00 0.00 0.00 0.00 0.00
0.00 0.00 0.00 0.00 0.00 0.00 0.00 0.00 0.00 0.00 0.00 0.00 0.00 0.00 0.00 0.00 0.00 0.00 0.00 0.00 0.00 0.00 0.00 0.00 0.00 0.00 0.00 0.00 0.00 0.00 0.00 0.00 0.00 0.00 0.00 0.00 0.00 0.00 0.00 0.00 0.00 0.00 0.00 0.00 0.00
0.00 0.00 0.00 0.00 0.00 0.00 0.00 0.00 0.00 0.00 0.00 0.00 0.00 0.00 0.00 0.00 0.00 0.00 0.00 0.00 0.00 0.00 0.00 0.00 0.00 0.00 0.00 0.00 0.00 0.00 0.00 0.00 0.00 0.00 0.00 0.00 0.00 0.00 0.00 0.00 0.00 0.00 0.00 0.00 0.00
0.00 0.00 0.00 0.00 0.00 0.00 0.00 0.00 0.00 0.00 0.00 0.00 0.00 0.00 0.00 0.00 0.00 0.00 0.00 0.00 0.00 0.00 0.00 0.00 0.00 0.00 0.00 0.00 0.00 0.00 0.00 0.00 0.00 0.00 0.00 0.00 0.00 0.00 0.00 0.00 0.00 0.00 0.00 0.00 0.00
MSLP
1021.51 1021.28 1021.07 1020.93 1020.77 1020.66 1020.39 1020.14 1019.87 1019.53 1019.13 1018.79 1018.37 1017.99 1017.68 1017.34 1017.03 1017.07 1016.86 1016.66 1016.43 1015.48 1015.06 1015.21 1015.09 1015.00 1014.99 1014.91 1014.70 1014.31 1014.36 1013.19 1011.93 1011.33 1010.79 1010.95 1011.01 1011.52 1011.88 1012.46 1013.01 1013.21 1013.46 1013.61 1015.14
1021.52 1021.33 1021.15 1020.98 1020.82 1020.66 1020.36 1020.08 1019.85 1019.56 1019.12 1018.73 1018.32 1017.89 1017.55 1017.29 1017.23 1016.94 1016.49 1015.88 1015.32 1014.91 1015.20 1015.39 1015.31 1015.15 1015.21 1015.02 1014.87 1014.32 1014.35 1013.28 1012.26 1011.28 1010.68 1010.49 1010.76 1011.45 1011.91 1012.49 1013.21 1013.62 1014.08 1014.44 1015.32
1021.56 1021.40 1021.24 1021.04 1020.87 1020.76 1020.48 1020.16 1019.86 1019.58 1019.20 1018.77 1018.35 1017.88 1017.43 1017.27 1017.20 1016.58 1016.00 1015.77 1015.28 1015.17 1015.22 1015.43 1015.34 1015.32 1015.26 1015.17 1014.92 1014.62 1014.12 1013.35 1012.47 1011.62 1011.13 1010.75 1011.23 1011.55 1011.93 1012.47 1012.30 1012.63 1013.96 1014.79 1015.29
1021.46 1021.39 1021.22 1021.07 1020.85 1020.69 1020.44 1020.13 1019.81 1019.49 1019.18 1018.85 1018.39 1017.81 1017.32 1017.32 1017.45 1016.37 1015.88 1015.70 1015.43 1015.33 1015.43 1015.46 1015.38 1015.43 1015.47 1015.48 1015.18 1014.80 1014.00 1013.45 1012.69 1012.02 1011.58 1011.18 1011.23 1011.59 1012.02 1012.29 1012.49 1012.42 1013.33 1014.47 1015.14
1021.46 1021.41 1021.27 1021.11 1020.79 1020.52 1020.32 1020.05 1019.77 1019.46 1019.16 1018.89 1018.45 1017.89 1017.48 1017.49 1017.11 1016.23 1015.97 1015.66 1015.39 1015.47 1015.67 1015.66 1015.65 1015.68 1015.65 1015.54 1015.22 1014.81 1014.10 1013.53 1012.91 1012.28 1011.87 1011.33 1011.05 1011.46 1012.07 1012.45 1012.94 1013.29 1013.86 1014.30 1015.13
1021.56 1021.42 1021.30 1021.05 1020.73 1020.54 1020.26 1019.91 1019.60 1019.26 1019.07 1018.84 1018.52 1018.03 1017.80 1017.46 1016.49 1016.32 1016.13 1015.71 1015.65 1015.62 1015.76 1015.74 1015.83 1015.71 1015.70 1015.58 1015.27 1014.96 1014.35 1013.76 1013.18 1012.61 1012.23 1011.62 1011.52 1012.01 1012.54 1013.09 1013.83 1014.33 1014.58 1015.21 1015.72
1021.58 1021.38 1021.27 1021.04 1020.68 1020.40 1020.10 1019.71 1019.51 1019.12 1018.91 1018.75 1018.55 1018.46 1018.10 1017.21 1016.47 1016.25 1016.02 1015.82 1015.65 1015.60 1015.72 1015.63 1015.69 1015.75 1015.66 1015.49 1015.25 1014.99 1014.64 1013.84 1013.48 1012.84 1012.31 1011.81 1012.69 1012.64 1012.51 1013.44 1014.37 1014.86 1014.97 1015.64 1015.81
1021.59 1021.27 1021.08 1020.92 1020.58 1020.22 1019.88 1019.54 1019.26 1019.00 1018.76 1018.52 1018.36 1018.49 1017.74 1016.49 1016.27 1016.16 1016.01 1015.76 1015.53 1015.47 1015.56 1015.46 1015.48 1015.69 1015.75 1015.57 1015.37 1015.21 1014.96 1014.43 1013.57 1013.03 1012.66 1012.53 1012.34 1012.50 1012.01 1013.46 1014.66 1015.32 1015.10 1015.43 1015.64
1021.45 1021.25 1021.01 1020.75 1020.43 1020.09 1019.64 1019.18 1018.84 1018.69 1018.55 1018.38 1018.43 1018.46 1017.51 1016.31 1016.41 1016.32 1016.23 1016.11 1015.65 1015.47 1015.34 1015.36 1015.48 1015.99 1015.90 1016.05 1016.11 1015.95 1015.61 1014.99 1013.98 1013.13 1012.87 1012.69 1012.43 1012.84 1011.99 1013.12 1015.13 1015.66 1014.78 1015.33 1015.68
1021.34 1021.15 1020.96 1020.64 1020.27 1019.82 1019.22 1018.73 1018.51 1018.50 1018.52 1018.42 1018.58 1018.92 1017.48 1017.32 1016.94 1016.55 1016.16 1016.09 1016.08 1015.84 1015.70 1015.89 1016.29 1016.61 1016.80 1016.58 1016.88 1016.62 1016.00 1015.26 1014.55 1013.82 1013.28 1013.20 1012.98 1012.51 1012.69 1012.33 1014.91 1014.40 1014.70 1015.17 1015.60
1021.44 1021.20 1020.94 1020.50 1020.08 1019.70 1019.16 1018.74 1019.37 1019.41 1019.13 1019.25 1019.28 1019.05 1018.25 1017.59 1016.96 1016.60 1016.31 1016.28 1016.45 1016.61 1016.91 1016.79 1017.23 1017.49 1017.45 1017.21 1016.93 1016.61 1016.22 1015.69 1014.77 1014.20 1013.85 1013.53 1013.02 1012.77 1012.52 1012.47 1012.77 1013.35 1014.55 1014.96 1014.88
1021.47 1021.05 1020.84 1020.46 1020.06 1019.77 1019.82 1020.56 1021.10 1021.30 1020.35 1019.32 1019.16 1018.87 1018.25 1018.01 1017.69 1016.88 1016.54 1016.88 1017.30 1017.73 1017.49 1017.49 1017.49 1017.38 1017.10 1016.91 1016.81 1016.52 1016.32 1015.92 1015.20 1014.65 1014.31 1014.03 1013.31 1012.67 1012.64 1012.21 1011.90 1012.41 1013.97 1014.37 1015.12
1021.42 1021.10 1020.77 1020.45 1020.00 1020.29 1020.92 1021.41 1021.29 1021.24 1020.97 1019.43 1018.74 1018.53 1018.09 1018.04 1017.92 1017.42 1017.17 1017.39 1017.70 1017.95 1018.14 1018.14 1017.74 1017.11 1016.86 1016.81 1016.73 1016.68 1016.63 1016.39 1016.11 1015.32 1014.91 1014.53 1013.82 1012.87 1012.50 1012.20 1012.34 1012.96 1013.73 1014.48 1014.36
1021.40 1021.08 1020.80 1020.32 1020.54 1021.09 1021.37 1021.38 1021.24 1021.30 1021.12 1019.85 1018.58 1018.01 1017.89 1017.90 1017.89 1017.33 1017.34 1017.72 1017.81 1018.17 1018.19 1018.09 1017.61 1017.42 1017.01 1016.92 1016.93 1016.89 1016.84 1016.64 1016.43 1016.30 1016.17 1015.55 1014.77 1013.52 1012.71 1012.47 1012.37 1012.44 1012.85 1012.70 1013.07
1021.45 1021.03 1020.84 1020.47 1021.08 1021.49 1021.58 1021.28 1021.16 1021.27 1021.37 1019.89 1018.58 1017.65 1017.92 1018.31 1018.30 1017.48 1017.40 1017.47 1018.00 1018.38 1018.77 1018.34 1017.86 1017.61 1017.35 1017.16 1017.00 1017.11 1016.96 1017.03 1017.06 1017.04 1017.01 1016.50 1016.11 1013.75 1013.29 1012.66 1012.09 1011.73 1011.88 1011.92 1012.03
1021.38 1021.20 1020.98 1021.13 1021.50 1021.64 1021.44 1021.12 1021.41 1021.41 1021.18 1020.03 1019.05 1018.82 1018.72 1018.50 1018.49 1018.12 1017.82 1017.83 1018.03 1018.41 1018.67 1018.65 1018.05 1017.79 1017.52 1017.30 1017.15 1017.04 1017.25 1017.55 1017.96 1018.03 1018.08 1017.27 1016.71 1014.23 1013.23 1012.16 1011.84 1011.49 1011.47 1011.42 1011.28
1021.32 1021.26 1021.02 1021.48 1021.73 1021.54 1021.45 1021.55 1021.88 1021.48 1021.41 1020.53 1020.05 1019.76 1019.78 1019.48 1018.89 1018.86 1018.95 1018.85 1019.29 1019.28 1019.36 1018.96 1018.37 1017.96 1017.71 1017.49 1017.38 1017.50 1017.95 1018.61 1018.81 1018.88 1018.57 1017.78 1017.21 1014.09 1012.64 1012.24 1011.99 1011.94 1011.80 1011.75 1011.72
1021.24 1021.10 1021.42 1021.49 1021.62 1021.45 1021.67 1021.70 1021.67 1021.57 1021.18 1020.74 1020.51 1020.13 1020.10 1019.85 1019.49 1019.30 1019.43 1019.82 1019.62 1019.84 1020.37 1020.10 1018.84 1018.38 1018.09 1018.02 1017.92 1018.23 1018.74 1019.16 1019.43 1019.55 1018.96 1017.91 1016.45 1013.78 1012.42 1012.16 1012.26 1012.47 1012.79 1012.42 1012.44
1021.02 1021.58 1021.52 1021.69 1021.54 1021.62 1021.82 1021.96 1021.35 1021.07 1020.86 1020.91 1020.65 1020.57 1020.29 1020.09 1020.14 1019.68 1019.66 1019.82 1019.72 1019.69 1020.20 1020.34 1019.50 1018.58 1018.39 1018.24 1018.51 1018.56 1018.89 1019.31 1019.45 1019.78 1019.32 1017.47 1015.75 1013.94 1012.61 1012.74 1012.84 1012.90 1013.06 1013.43 1012.97
1021.38 1021.71 1021.94 1021.76 1021.65 1021.92 1022.15 1021.80 1021.10 1020.60 1020.75 1020.96 1021.13 1021.02 1020.91 1020.39 1020.34 1020.11 1019.66 1019.27 1019.42 1019.56 1019.81 1020.23 1020.20 1018.86 1018.50 1018.51 1018.71 1018.81 1019.07 1019.37 1019.76 1019.84 1019.01 1017.26 1016.28 1014.51 1013.64 1013.54 1013.38 1013.42 1013.39 1013.61 1013.71
1021.65 1021.82 1022.03 1021.82 1021.64 1021.91 1022.47 1021.52 1020.83 1020.63 1020.57 1020.94 1021.09 1021.11 1021.09 1020.95 1020.59 1020.31 1019.77 1019.16 1019.10 1019.51 1019.83 1020.17 1020.41 1019.36 1019.03 1018.88 1018.98 1019.29 1019.27 1019.66 1019.95 1019.75 1019.30 1018.14 1015.68 1014.19 1013.95 1013.89 1013.92 1013.74 1013.62 1013.85 1013.96
1021.95 1022.40 1022.12 1021.95 1022.35 1022.29 1021.93 1021.00 1020.57 1020.61 1020.77 1020.88 1021.07 1021.19 1021.01 1020.82 1020.65 1020.38 1019.95 1019.32 1019.07 1019.31 1019.81 1020.17 1020.57 1020.12 1019.09 1018.86 1018.76 1019.11 1019.24 1019.45 1020.00 1019.84 1019.37 1018.45 1015.13 1013.53 1013.56 1013.92 1014.02 1013.84 1014.01 1014.06 1014.29
1022.48 1022.56 1022.23 1021.96 1022.45 1022.34 1021.41 1020.95 1020.60 1020.69 1020.85 1021.08 1021.26 1021.32 1021.16 1021.07 1020.85 1020.07 1019.67 1019.18 1019.32 1019.57 1019.77 1020.20 1020.64 1020.49 1019.17 1019.28 1019.16 1018.95 1018.86 1019.07 1019.40 1019.49 1018.82 1018.33 1014.78 1013.44 1013.77 1013.81 1013.76 1013.89 1013.93 1014.08 1014.45
1022.73 1022.94 1022.54 1022.50 1022.48 1022.08 1021.43 1020.77 1020.57 1020.45 1020.59 1020.83 1020.89 1021.05 1021.33 1021.24 1020.87 1020.40 1019.86 1019.23 1019.49 1019.88 1020.05 1020.20 1020.66 1020.59 1020.02 1018.94 1018.70 1018.71 1018.50 1018.73 1018.94 1019.17 1017.96 1016.21 1014.51 1013.43 1013.70 1013.76 1013.53 1013.78 1013.98 1014.28 1014.54
1023.03 1023.14 1022.99 1022.83 1022.36 1022.07 1021.66 1021.03 1020.62 1020.52 1020.64 1020.66 1020.82 1020.84 1020.97 1021.15 1020.94 1020.73 1020.17 1019.70 1019.69 1019.89 1020.47 1020.82 1020.89 1020.37 1019.26 1018.82 1018.77 1018.06 1017.55 1017.97 1018.34 1017.56 1017.39 1015.33 1014.66 1013.14 1013.42 1013.40 1013.17 1013.16 1013.71 1014.25 1014.52
1023.25 1023.43 1023.43 1023.04 1022.65 1022.14 1021.60 1020.93 1020.52 1020.21 1020.30 1020.49 1020.74 1020.29 1020.58 1020.71 1019.99 1020.05 1019.99 1020.01 1019.86 1020.31 1020.63 1021.11 1020.93 1020.58 1019.64 1018.47 1018.21 1017.47 1016.54 1016.49 1016.60 1016.53 1016.12 1015.54 1013.77 1012.97 1012.75 1012.76 1012.96 1013.19 1013.64 1014.08 1014.27
1023.46 1023.58 1023.02 1023.08 1022.84 1022.36 1021.40 1020.59 1020.17 1020.19 1019.57 1019.66 1019.99 1020.31 1020.42 1019.57 1019.25 1018.97 1019.30 1019.53 1019.56 1020.00 1020.60 1021.06 1021.14 1021.11 1019.79 1018.67 1017.90 1016.55 1014.46 1015.04 1015.25 1015.20 1014.79 1014.61 1013.11 1012.92 1012.63 1012.71 1012.59 1012.70 1013.27 1013.50 1013.81
Thickness
5632 5631 5629 5626 5622 5619 5616 5612 5607 5603 5597 5591 5583 5571 5558 5550 5546 5538 5532 5531 5530 5533 5537 5540 5543 5548 5556 5565 5578 5593 5597 5615 5639 5654 5674 5679 5685 5688 5695 5694 5699 5706 5711 5716 5708
5631 5629 5627 5624 5621 5617 5614 5610 5604 5598 5593 5586 5577 5566 5555 5548 5542 5536 5535 5535 5537 5539 5535 5534 5537 5544 5548 5557 5567 5579 5587 5610 5633 5654 5669 5676 5680 5680 5687 5688 5691 5696 5700 5704 5703
5629 5627 5626 5624 5619 5614 5610 5605 5601 5595 5589 5582 5573 5563 5555 5548 5542 5539 5540 5537 5539 5539 5537 5534 5537 5541 5546 5552 5563 5573 5585 5602 5623 5643 5657 5663 5667 5674 5678 5681 5699 5701 5694 5695 5699
5628 5626 5625 5623 5618 5613 5608 5603 5599 5593 5587 5578 5569 5562 5556 5548 5531 5543 5543 5540 5538 5537 5535 5533 5535 5537 5540 5545 5556 5567 5584 5597 5615 5630 5645 5654 5663 5667 5673 5683 5692 5702 5698 5694 5694
5628 5626 5624 5621 5618 5614 5608 5603 5597 5592 5586 5577 5568 5562 5556 5543 5539 5545 5544 5543 5541 5538 5533 5533 5532 5534 5537 5543 5554 5566 5580 5593 5606 5622 5634 5647 5657 5665 5666 5675 5680 5685 5688 5692 5691
5628 5626 5623 5620 5617 5612 5608 5603 5598 5593 5587 5578 5568 5563 5554 5539 5549 5545 5545 5545 5541 5538 5533 5532 5532 5535 5537 5543 5552 5561 5573 5583 5599 5612 5626 5636 5647 5649 5656 5664 5665 5670 5676 5677 5678
5628 5626 5622 5618 5615 5612 5608 5604 5599 5595 5589 5580 5571 5562 5552 5547 5552 5549 5547 5546 5544 5541 5536 5535 5535 5536 5539 5545 5552 5561 5570 5583 5593 5607 5618 5629 5626 5638 5650 5654 5653 5659 5666 5667 5671
5628 5625 5622 5618 5615 5613 5610 5606 5602 5596 5590 5584 5576 5565 5555 5561 5557 5553 5551 5549 5548 5545 5541 5540 5539 5538 5539 5545 5550 5559 5561 5566 5587 5601 5613 5618 5624 5638 5650 5645 5642 5645 5657 5660 5664
5628 5625 5623 5620 5617 5614 5612 5609 5605 5599 5593 5586 5580 5568 5561 5566 5555 5554 5552 5547 5548 5548 5546 5544 5541 5534 5539 5538 5541 5543 5553 5561 5578 5596 5606 5615 5619 5623 5644 5642 5632 5634 5651 5654 5654
5628 5626 5624 5621 5618 5616 5615 5613 5608 5601 5594 5589 5579 5568 5569 5559 5557 5556 5555 5551 5547 5546 5545 5539 5530 5529 5527 5533 5533 5539 5551 5560 5568 5586 5596 5601 5607 5622 5628 5638 5625 5636 5642 5646 5650
5628 5626 5624 5623 5621 5618 5618 5614 5601 5596 5590 5584 5575 5567 5565 5565 5563 5560 5556 5552 5547 5541 5534 5534 5524 5523 5526 5531 5536 5541 5546 5552 5568 5578 5587 5592 5602 5612 5622 5633 5633 5639 5634 5638 5648
5628 5627 5624 5623 5622 5619 5614 5600 5591 5585 5582 5584 5577 5570 5569 5566 5557 5560 5560 5549 5541 5532 5533 5531 5526 5530 5532 5536 5538 5543 5545 5552 5563 5570 5580 5582 5595 5607 5614 5626 5641 5640 5632 5635 5635
5627 5626 5624 5623 5622 5616 5605 5597 5591 5586 5580 5585 5584 5576 5573 5570 5560 5558 5557 5549 5541 5536 5530 5531 5536 5537 5541 5537 5539 5542 5544 5548 5554 5562 5572 5576 5585 5603 5613 5617 5624 5629 5625 5629 5633
5625 5624 5623 5624 5617 5609 5602 5597 5593 5587 5570 5584 5585 5583 5579 5572 5565 5568 5561 5553 5546 5539 5535 5535 5539 5537 5541 5540 5538 5538 5542 5547 5553 5553 5556 5564 5570 5589 5603 5608 5610 5623 5627 5639 5641
5623 5623 5621 5621 5613 5606 5603 5599 5594 5587 5555 5587 5585 5592 5579 5572 5565 5570 5566 5560 5548 5543 5536 5539 5538 5536 5538 5540 5541 5540 5542 5543 5546 5545 5549 5557 5558 5588 5590 5603 5615 5623 5627 5639 5644
5622 5620 5619 5615 5609 5604 5602 5600 5592 5572 5555 5581 5587 5576 5573 5573 5568 5566 5563 5560 5554 5547 5539 5536 5537 5538 5540 5538 5540 5542 5542 5535 5521 5530 5535 5544 5548 5579 5593 5608 5615 5621 5626 5634 5640
5619 5617 5617 5610 5606 5604 5601 5594 5571 5561 5581 5584 5578 5574 5567 5566 5568 5562 5554 5549 5542 5533 5526 5530 5541 5539 5539 5540 5540 5536 5529 5521 5523 5523 5535 5526 5534 5583 5599 5601 5609 5613 5617 5624 5629
5616 5616 5611 5608 5604 5602 5596 5593 5579 5589 5580 5580 5575 5572 5573 5569 5569 5560 5555 5541 5546 5536 5515 5520 5524 5539 5538 5537 5535 5530 5526 5517 5520 5516 5523 5524 5543 5576 5596 5598 5596 5599 5598 5606 5614
5614 5609 5607 5603 5601 5598 5591 5569 5587 5585 5587 5578 5575 5576 5570 5571 5565 5562 5556 5548 5547 5545 5536 5521 5530 5538 5536 5535 5533 5529 5525 5519 5513 5499 5509 5533 5550 5572 5587 5586 5587 5590 5594 5594 5601
5607 5603 5600 5599 5597 5590 5583 5589 5590 5589 5582 5576 5574 5571 5567 5565 5560 5556 5557 5560 5554 5547 5540 5535 5519 5537 5537 5534 5528 5528 5524 5522 5504 5522 5523 5530 5533 5552 5570 5573 5574 5580 5585 5588 5590
5599 5600 5595 5594 5593 5582 5577 5583 5587 5584 5584 5575 5572 5567 5562 5561 5559 5554 5558 5562 5556 5548 5540 5534 5527 5536 5532 5532 5529 5520 5519 5511 5507 5508 5522 5521 5541 5548 5558 5562 5563 5568 5574 5576 5579
5588 5592 5588 5587 5584 5556 5580 5584 5588 5582 5576 5573 5568 5560 5561 5560 5559 5555 5552 5556 5554 5550 5544 5534 5519 5518 5535 5529 5525 5523 5523 5514 5513 5518 5496 5498 5530 5557 5553 5549 5551 5557 5561 5565 5566
5577 5576 5580 5580 5580 5574 5578 5582 5580 5575 5571 5564 5560 5553 5555 5555 5553 5554 5556 5558 5548 5544 5540 5531 5515 5503 5537 5532 5522 5521 5517 5513 5498 5495 5504 5509 5547 5550 5539 5545 5551 5553 5553 5555 5556
5567 5570 5570 5566 5559 5575 5578 5580 5578 5569 5569 5562 5563 5556 5549 5549 5539 5549 5552 5556 5545 5540 5539 5533 5519 5523 5517 5532 5531 5526 5523 5508 5509 5492 5517 5522 5543 5556 5548 5544 5551 5547 5546 5545 5548
5553 5560 5558 5568 5567 5564 5566 5569 5572 5568 5557 5555 5558 5545 5542 5543 5542 5531 5539 5546 5542 5540 5527 5517 5515 5508 5526 5518 5513 5525 5526 5518 5501 5521 5523 5535 5528 5554 5539 5542 5549 5551 5543 5540 5541
5549 5548 5538 5541 5545 5554 5556 5562 5562 5562 5556 5554 5545 5552 5530 5535 5540 5542 5538 5538 5541 5527 5517 5504 5508 5508 5515 5528 5509 5514 5524 5514 5517 5519 5509 5516 5535 5545 5545 5533 5536 5540 5536 5538 5540
5526 5526 5533 5535 5533 5541 5547 5556 5559 5552 5557 5554 5543 5538 5527 5531 5531 5535 5530 5530 5531 5525 5506 5499 5490 5487 5503 5509 5508 5527 5538 5522 5519 5512 5523 5514 5545 5538 5538 5536 5539 5541 5534 5538 5538